Waarnemingen

Advertentie
Mijn weer
J6-A, Nederland (6211): temperatuur & dauwpunt: 19.02.2018 02:00:00 - 25.02.2018 02:00:00 (CET)J6-A, Nederland (6211): windsnelheid & windstoten: 19.02.2018 02:00:00 - 25.02.2018 02:00:00 (CET)J6-A, Nederland (6211): windrichting: 19.02.2018 02:00:00 - 25.02.2018 02:00:00 (CET)J6-A, Nederland (6211): luchtdruk: 19.02.2018 02:00:00 - 25.02.2018 02:00:00 (CET)J6-A, Nederland (6211): zicht: 19.02.2018 02:00:00 - 25.02.2018 02:00:00 (CET)
Datum & Tijd tt [°C] td [°C] ff [km/u] ff [kn] fx [km/u] fx [kn] dd ppp [hPa] vv [km]
25.02.2018 02:00:00 1,5 -5,5 48 26 50 27 O 1031,5 10
25.02.2018 01:00:00 1,8 -4,6 52 28 54 29 OZO 1031,2 10
25.02.2018 00:00:00 2,1 -6,0 54 29 54 29 OZO 1030,7 10
24.02.2018 23:00:00 2,5 -4,8 54 29 54 29 OZO 1030,6 10
24.02.2018 22:00:00 2,8 -3,3 55 30 54 29 O 1030,6 10
24.02.2018 21:00:00 2,9 -3,1 54 29 54 29 O 1030,1 10
24.02.2018 20:00:00 2,9 -2,4 55 30 54 29 O 1029,7 10
24.02.2018 19:00:00 2,8 -2,1 54 29 54 29 O 1029,6 10
24.02.2018 18:00:00 2,7 -1,8 47 25 54 29 ONO 1029,2 17
24.02.2018 17:00:00 2,6 -1,7 54 29 54 29 O 1028,9 10
24.02.2018 16:00:00 2,4 -1,7 52 28 50 27 O 1028,8 10
24.02.2018 15:00:00 2,3 -1,0 52 28 50 27 O 1029,1 10
24.02.2018 14:00:00 2,1 -2,0 54 29 54 29 O 1029,0 10
24.02.2018 13:00:00 1,9 -2,8 54 29 54 29 OZO 1029,0 10
24.02.2018 12:00:00 1,9 -4,2 57 31 58 31 OZO 1028,8 10
24.02.2018 11:00:00 2,4 -5,0 61 33 58 31 OZO 1028,4 10
24.02.2018 10:00:00 2,5 -6,4 59 32 58 31 OZO 1027,8 10
24.02.2018 09:00:00 2,5 -5,0 55 30 54 29 OZO 1027,5 10
24.02.2018 08:00:00 2,6 -6,0 57 31 58 31 OZO 1026,7 10
24.02.2018 07:00:00 2,4 -5,6 55 30 54 29 OZO 1026,0 10
24.02.2018 06:00:00 2,3 -4,8 54 29 54 29 OZO 1025,7 10
24.02.2018 05:00:00 2,5 -5,5 54 29 50 27 OZO 1025,4 10
24.02.2018 04:00:00 2,5 -4,2 50 27 54 29 OZO 1025,1 10
24.02.2018 03:00:00 2,4 -3,8 54 29 54 29 OZO 1024,9 10
24.02.2018 02:00:00 2,3 -3,5 52 28 54 29 O 1025,0 10
24.02.2018 01:00:00 2,5 -3,0 54 29 50 27 OZO 1024,9 10
24.02.2018 00:00:00 2,7 -2,7 52 28 50 27 OZO 1024,7 10
23.02.2018 23:00:00 2,9 -1,8 54 29 50 27 OZO 1024,6 10
23.02.2018 22:00:00 2,8 -1,9 54 29 50 27 OZO 1024,6 10
23.02.2018 21:00:00 2,8 -2,0 48 26 50 27 O 1024,5 10
23.02.2018 20:00:00 2,7 -2,5 40 21 50 27 ONO 1024,6 16
23.02.2018 19:00:00 2,8 -2,2 46 25 47 25 O 1024,5 10
23.02.2018 18:00:00 3,0 -2,3 42 23 43 23 ONO 1024,4 10
23.02.2018 17:00:00 3,0 -3,1 39 21 40 21 O 1024,6 10
23.02.2018 16:00:00 3,1 -3,3 29 16 36 19 O 1024,9 17
23.02.2018 15:00:00 2,9 -3,8 37 20 43 23 OZO 1025,2 10
23.02.2018 14:00:00 3,4 -3,9 29 16 36 19 O 1025,3 25
23.02.2018 13:00:00 3,3 -3,1 34 18 36 19 OZO 1025,6 10
23.02.2018 12:00:00 3,5 -3,3 34 18 36 19 O 1026,1 10
23.02.2018 11:00:00 3,1 -1,8 29 16 36 19 O 1026,5 10
23.02.2018 10:00:00 3,2 -3,0 35 19 36 19 O 1026,5 10
23.02.2018 09:00:00 2,9 -1,2 29 16 36 19 OZO 1026,1 15
23.02.2018 08:00:00 3,6 -0,7 28 15 32 18 OZO 1025,8 10
23.02.2018 07:00:00 4,2 -0,9 28 15 29 16 OZO 1025,5 10
23.02.2018 06:00:00 4,2 -1,2 26 14 29 16 OZO 1025,4 10
23.02.2018 05:00:00 3,7 -0,7 29 16 32 18 OZO 1025,2 10
23.02.2018 04:00:00 3,9 0,4 31 17 32 18 OZO 1025,3 10
23.02.2018 03:00:00 4,4 1,3 28 15 25 14 OZO 1025,7 10
23.02.2018 02:00:00 4,5 0,5 26 14 29 16 ONO 1025,8 10
23.02.2018 01:00:00 4,6 0,3 22 12 29 16 ONO 1026,1 10
23.02.2018 00:00:00 4,4 -0,6 24 13 25 14 ONO 1026,3 10
22.02.2018 23:00:00 4,2 -0,2 22 12 29 16 ONO 1026,7 10
22.02.2018 22:00:00 4,0 -0,5 22 12 25 14 ONO 1026,6 10
22.02.2018 21:00:00 3,9 -0,7 18 10 22 12 NO 1026,6 10
22.02.2018 20:00:00 3,8 -1,0 14 8 29 16 NO 1026,6 22
22.02.2018 19:00:00 3,9 -0,7 22 12 29 16 O 1026,5 10
22.02.2018 18:00:00 4,2 -1,2 22 12 29 16 O 1026,6 10
22.02.2018 17:00:00 3,9 -2,0 22 12 25 14 ONO 1026,7 10
22.02.2018 16:00:00 4,1 -1,4 11 6 25 14 NO 1026,9 25
22.02.2018 15:00:00 3,5 -2,2 16 9 25 14 - 1027,2 10
22.02.2018 14:00:00 3,5 -2,1 16 9 29 16 - 1027,6 10
22.02.2018 13:00:00 3,5 -2,2 18 10 29 16 OZO 1027,9 10
22.02.2018 12:00:00 3,5 -2,0 18 10 29 16 - 1028,1 10
22.02.2018 11:00:00 3,5 -2,1 24 13 29 16 OZO 1028,0 10
22.02.2018 10:00:00 3,6 -2,1 24 13 29 16 - 1027,9 10
22.02.2018 09:00:00 3,7 -2,1 21 11 29 16 O 1027,7 10
22.02.2018 08:00:00 3,5 -2,3 22 12 29 16 O 1027,6 10
22.02.2018 07:00:00 3,5 -2,2 22 12 29 16 OZO 1027,5 10
22.02.2018 06:00:00 3,4 -2,4 21 11 29 16 OZO 1027,4 10
22.02.2018 05:00:00 3,6 -2,3 24 13 29 16 - 1027,4 10
22.02.2018 04:00:00 3,4 -2,0 22 12 29 16 OZO 1027,5 21
22.02.2018 03:00:00 3,7 -1,4 22 12 29 16 - 1027,6 10
22.02.2018 02:00:00 3,7 -0,8 18 10 29 16 O 1027,7 10
22.02.2018 01:00:00 3,8 -1,3 22 12 29 16 O 1027,9 10
22.02.2018 00:00:00 3,9 -0,9 24 13 29 16 O 1028,0 10
21.02.2018 23:00:00 4,1 -0,5 24 13 29 16 O 1028,1 10
21.02.2018 22:00:00 4,1 -0,7 24 13 29 16 O 1028,1 10
21.02.2018 21:00:00 4,3 -0,5 22 12 29 16 ONO 1028,0 10
21.02.2018 20:00:00 4,6 -0,3 24 13 29 16 O 1027,6 10
21.02.2018 19:00:00 4,6 0,7 21 11 25 14 - 1027,3 9
21.02.2018 18:00:00 4,8 1,0 21 11 25 14 OZO 1026,8 10
21.02.2018 17:00:00 4,8 1,6 15 8 22 12 O 1026,8 10
21.02.2018 16:00:00 4,6 2,0 11 6 25 14 ZZO 1026,8 10
21.02.2018 15:00:00 4,7 2,4 16 9 25 14 ZZO 1026,9 10
21.02.2018 14:00:00 5,3 2,3 8 4 11 6 ONO 1027,5 10
21.02.2018 13:00:00 5,2 2,5 5 3 7 4 NO 1027,7 10
21.02.2018 12:00:00 4,7 2,7 0 0 7 4 N 1027,7 11
21.02.2018 11:00:00 4,4 2,4 5 3 7 4 WNW 1027,8 10
21.02.2018 10:00:00 4,3 2,2 8 4 11 6 WZW 1027,5 10
21.02.2018 09:00:00 4,3 2,0 11 6 14 8 W 1027,1 10
21.02.2018 08:00:00 4,2 1,4 11 6 14 8 W 1026,7 10
21.02.2018 07:00:00 4,2 1,6 16 9 18 10 - 1026,8 5
21.02.2018 06:00:00 4,5 2,3 13 7 18 10 - 1027,0 6
21.02.2018 05:00:00 4,5 2,8 13 7 18 10 WNW 1027,2 7
21.02.2018 04:00:00 4,8 2,1 11 6 14 8 NW 1027,5 10
21.02.2018 03:00:00 4,9 1,5 4 2 7 4 N 1027,4 9
21.02.2018 02:00:00 5,0 1,6 8 4 11 6 NNO 1027,2 10
21.02.2018 01:00:00 4,9 1,4 11 6 14 8 NO 1026,9 9
21.02.2018 00:00:00 4,9 1,7 15 8 18 10 NNO 1026,5 9
20.02.2018 23:00:00 4,8 1,8 18 10 18 10 NNO 1026,1 8
20.02.2018 22:00:00 4,8 1,4 16 9 22 12 NNO 1025,8 8
20.02.2018 21:00:00 4,7 1,0 21 11 22 12 NNO 1025,7 8
20.02.2018 20:00:00 4,4 1,0 21 11 22 12 NNO 1024,7 9
20.02.2018 19:00:00 4,0 0,9 16 9 18 10 NO 1023,8 10
20.02.2018 18:00:00 4,1 0,6 16 9 29 16 NO 1023,2 10
20.02.2018 17:00:00 4,3 0,9 21 11 29 16 - 1022,0 7
20.02.2018 16:00:00 3,9 0,7 18 10 29 16 OZO 1021,1 9
20.02.2018 15:00:00 3,3 0,7 24 13 29 16 - 1020,5 7
20.02.2018 14:00:00 2,8 0,6 28 15 32 18 - 1020,3 7
20.02.2018 13:00:00 3,6 0,9 26 14 32 18 OZO 1020,0 7
20.02.2018 12:00:00 4,1 0,6 24 13 32 18 - 1019,7 9
20.02.2018 11:00:00 4,6 -0,5 18 10 25 14 ZO 1019,4 9
20.02.2018 10:00:00 4,9 0,3 18 10 22 12 ZO 1019,2 13
20.02.2018 09:00:00 5,0 1,8 21 11 22 12 ZO 1018,7 10
20.02.2018 08:00:00 4,9 1,9 21 11 25 14 ZO 1018,7 10
20.02.2018 07:00:00 4,9 3,1 21 11 25 14 ZO 1018,6 4,6
20.02.2018 06:00:00 4,8 3,3 24 13 29 16 - 1018,7 5
20.02.2018 05:00:00 4,9 3,5 22 12 29 16 - 1018,6 6
20.02.2018 04:00:00 4,8 3,5 18 10 29 16 - 1018,9 6
20.02.2018 03:00:00 5,1 3,7 18 10 29 16 - 1018,7 5
20.02.2018 02:00:00 5,2 3,4 21 11 25 14 - 1018,7 9
20.02.2018 01:00:00 4,8 2,8 21 11 25 14 - 1018,6 7
20.02.2018 00:00:00 4,8 3,4 18 10 29 16 - 1018,2 5
19.02.2018 23:00:00 4,8 3,5 21 11 29 16 - 1018,2 5
19.02.2018 22:00:00 4,8 4,1 18 10 29 16 OZO 1017,7 3,9
19.02.2018 21:00:00 4,8 4,4 24 13 29 16 ZO 1018,0 2,9
19.02.2018 20:00:00 4,9 4,5 29 16 32 18 OZO 1017,5 8
19.02.2018 19:00:00 5,1 4,7 28 15 29 16 OZO 1017,4 6
19.02.2018 18:00:00 5,2 4,8 24 13 29 16 OZO 1016,8 5
19.02.2018 17:00:00 5,5 5,2 18 10 25 14 ZO 1016,6 6
19.02.2018 16:00:00 5,4 5,3 18 10 22 12 ZO 1016,4 0,7
19.02.2018 15:00:00 5,6 5,5 24 13 22 12 ZO 1016,3 0,2
19.02.2018 14:00:00 5,8 5,7 18 10 25 14 ZO 1016,6 1,1
19.02.2018 13:00:00 5,8 5,3 18 10 18 10 ZZO 1016,5 3,0
19.02.2018 12:00:00 5,8 5,2 15 8 18 10 ZZO 1016,8 4,2
19.02.2018 11:00:00 5,7 5,1 18 10 18 10 Z 1016,7 3,7
19.02.2018 10:00:00 5,6 5,1 18 10 18 10 Z 1016,9 3,4
19.02.2018 09:00:00 5,6 4,9 18 10 18 10 Z 1017,2 4,9
19.02.2018 08:00:00 5,6 4,8 21 11 18 10 Z 1017,1 5
19.02.2018 07:00:00 5,7 4,5 14 8 18 10 Z 1017,1 9
19.02.2018 06:00:00 5,7 4,4 21 11 18 10 ZZW 1017,4 8
19.02.2018 05:00:00 5,7 4,6 21 11 22 12 ZZW 1017,8 7
19.02.2018 04:00:00 5,8 4,7 22 12 22 12 Z 1018,1 5
19.02.2018 03:00:00 5,8 4,5 22 12 22 12 Z 1018,6 8
19.02.2018 02:00:00 5,7 4,0 22 12 22 12 Z 1019,2 8

tt = temperatuur
td = dauwpunt
ff = windsnelheid
fx = windstoten
dd = windrichting
ppp = luchtdruk
vv = zicht

Weerstations in de omgeving